User: anonymous   Login
Location: Unspecified
(0.0000°N, 0.0000°E)
Time: 15:19:25
(UTC+02:00)
Language:

ATLAS 3B CENTAUR R/B - Orbit

View from above orbital plane
View from above orbital plane
View from above satellite
View from above satellite

Ground track
Ground track

The orbit data is extracted from the following two-line orbital elements,

1 28118U 03057B   15185.75042466  .00056424  00000-0  93925-3 0  9991
2 28118 028.1590 059.6951 3582644 309.0360 061.9083 08.32701176226254
Epoch (UTC): 04 July 2015 18:00:36
Eccentricity: 0.3582644
inclination: 28.1590°
perigee height: 220 km
apogee height: 7587 km
right ascension of ascending node: 59.6951°
argument of perigee: 309.0360°
revolutions per day: 8.32701176
mean anomaly at epoch: 61.9083°
orbit number at epoch: 22625

The dashed part of the orbit path shows where the satellite is in the earth's shadow,  

DLR